Satellite: MET-3/5 Catalog number: 21655 Epoch time: 13115.83230247 Element set: 674 Inclination: 082.5540 deg RA of node: 291.2865 deg Eccentricity: 0.0012278 Arg of perigee: 258.6509 deg Mean anomaly: 101.3234 deg Mean motion: 13.17042245 rev/day Decay rate: 2.92e-06 rev/day^2 Epoch rev: 4304 Checksum: 273
Satellite: MET-2/21 Catalog number: 22782 Epoch time: 13115.64213853 Element set: 722 Inclination: 082.5475 deg RA of node: 144.6144 deg Eccentricity: 0.0022065 Arg of perigee: 000.3599 deg Mean anomaly: 147.9565 deg Mean motion: 13.83702772 rev/day Decay rate: 8.0e-08 rev/day^2 Epoch rev: 99237 Checksum: 303
Satellite: OKEAN-4 Catalog number: 23317 Epoch time: 13115.16881944 Element set: 200 Inclination: 082.5374 deg RA of node: 099.4124 deg Eccentricity: 0.0022110 Arg of perigee: 045.6333 deg Mean anomaly: 142.0926 deg Mean motion: 14.84364008 rev/day Decay rate: 1.008e-05 rev/day^2 Epoch rev: 107 Checksum: 250
Satellite: NOAA-14 Catalog number: 23455 Epoch time: 13115.43628435 Element set: 284 Inclination: 098.8029 deg RA of node: 200.6721 deg Eccentricity: 0.0010384 Arg of perigee: 144.2313 deg Mean anomaly: 346.4614 deg Mean motion: 14.13902055 rev/day Decay rate: 7.4e-07 rev/day^2 Epoch rev: 94491 Checksum: 279
Satellite: NOAA-15 Catalog number: 25338 Epoch time: 13115.57995230 Element set: 704 Inclination: 098.7221 deg RA of node: 106.0796 deg Eccentricity: 0.0009442 Arg of perigee: 280.9744 deg Mean anomaly: 218.1898 deg Mean motion: 14.25203652 rev/day Decay rate: 1.37e-06 rev/day^2 Epoch rev: 77734 Checksum: 316
Satellite: RESURS Catalog number: 25394 Epoch time: 13115.12682152 Element set: 359 Inclination: 098.3575 deg RA of node: 093.5222 deg Eccentricity: 0.0002337 Arg of perigee: 072.8125 deg Mean anomaly: 066.4672 deg Mean motion: 14.24327133 rev/day Decay rate: -2.3e-07 rev/day^2 Epoch rev: 76880 Checksum: 284
Satellite: FENGYUN1 Catalog number: 25730 Epoch time: 13115.48949503 Element set: 858 Inclination: 098.8755 deg RA of node: 075.6607 deg Eccentricity: 0.0023419 Arg of perigee: 191.6685 deg Mean anomaly: 317.7101 deg Mean motion: 14.10400904 rev/day Decay rate: 1.124e-05 rev/day^2 Epoch rev: 71861 Checksum: 302
Satellite: OKEAN-0 Catalog number: 25860 Epoch time: 13115.47237705 Element set: 928 Inclination: 097.9854 deg RA of node: 078.6461 deg Eccentricity: 0.0001048 Arg of perigee: 080.1110 deg Mean anomaly: 067.8359 deg Mean motion: 14.74549920 rev/day Decay rate: 4.57e-06 rev/day^2 Epoch rev: 74058 Checksum: 317
Satellite: NOAA-16 Catalog number: 26536 Epoch time: 13115.52218824 Element set: 181 Inclination: 099.0475 deg RA of node: 167.7532 deg Eccentricity: 0.0009458 Arg of perigee: 283.6731 deg Mean anomaly: 207.1565 deg Mean motion: 14.12864260 rev/day Decay rate: 6.4e-07 rev/day^2 Epoch rev: 64913 Checksum: 307
Satellite: NOAA-17 Catalog number: 27453 Epoch time: 13115.61883875 Element set: 103 Inclination: 098.3143 deg RA of node: 132.4835 deg Eccentricity: 0.0010673 Arg of perigee: 324.6984 deg Mean anomaly: 182.6512 deg Mean motion: 14.24582277 rev/day Decay rate: 4.9e-07 rev/day^2 Epoch rev: 56323 Checksum: 307
Satellite: NOAA-18 Catalog number: 28654 Epoch time: 13115.57583411 Element set: 587 Inclination: 099.0952 deg RA of node: 083.0502 deg Eccentricity: 0.0014152 Arg of perigee: 001.3321 deg Mean anomaly: 129.8587 deg Mean motion: 14.11802689 rev/day Decay rate: 7.3e-07 rev/day^2 Epoch rev: 40863 Checksum: 296
Satellite: NOAA-19 Catalog number: 33591 Epoch time: 13115.58046478 Element set: 772 Inclination: 098.9005 deg RA of node: 058.0696 deg Eccentricity: 0.0013519 Arg of perigee: 214.5887 deg Mean anomaly: 263.3308 deg Mean motion: 14.11490068 rev/day Decay rate: 6.6e-07 rev/day^2 Epoch rev: 21707 Checksum: 318
/EX SB KEPS @ AMSAT $ORB13115.M Orbital Elements 13115.MISC
HR AMSAT ORBITAL ELEMENTS FOR MANNED AND MISCELLANEOUS SATELLITES FROM WA5QGD FORT WORTH,TX April 25, 2013 BID: ORB13115.M TO ALL RADIO AMATEURS BT
Satellite: HUBBLE Catalog number: 20580 Epoch time: 13114.77321830 Element set: 225 Inclination: 028.4694 deg RA of node: 262.9569 deg Eccentricity: 0.0003232 Arg of perigee: 134.3085 deg Mean anomaly: 358.5015 deg Mean motion: 15.03501685 rev/day Decay rate: 1.722e-05 rev/day^2 Epoch rev: 6165 Checksum: 270
Satellite: ISS Catalog number: 25544 Epoch time: 13115.95148148 Element set: 681 Inclination: 051.6475 deg RA of node: 007.4696 deg Eccentricity: 0.0010087 Arg of perigee: 182.6952 deg Mean anomaly: 000.7808 deg Mean motion: 15.52500078 rev/day Decay rate: 1.1030e-04 rev/day^2 Epoch rev: 82659 Checksum: 293
Satellite: CO-58 Catalog number: 28895 Epoch time: 13114.80185667 Element set: 459 Inclination: 097.8763 deg RA of node: 332.7171 deg Eccentricity: 0.0016443 Arg of perigee: 247.6445 deg Mean anomaly: 112.3014 deg Mean motion: 14.61046811 rev/day Decay rate: 5.41e-06 rev/day^2 Epoch rev: 39914 Checksum: 318
Satellite: FALCON Catalog number: 30776 Epoch time: 13115.54164456 Element set: 599 Inclination: 035.4296 deg RA of node: 165.2265 deg Eccentricity: 0.0002508 Arg of perigee: 220.0862 deg Mean anomaly: 287.4508 deg Mean motion: 15.10173985 rev/day Decay rate: 3.605e-05 rev/day^2 Epoch rev: 33745 Checksum: 301
Satellite: MAST Catalog number: 31126 Epoch time: 13115.03408703 Element set: 737 Inclination: 097.8800 deg RA of node: 113.9973 deg Eccentricity: 0.0092755 Arg of perigee: 217.6106 deg Mean anomaly: 175.2291 deg Mean motion: 14.54514121 rev/day Decay rate: 3.77e-06 rev/day^2 Epoch rev: 31959 Checksum: 290
Satellite: CAPE1 Catalog number: 31130 Epoch time: 13114.96853951 Element set: 746 Inclination: 097.8964 deg RA of node: 110.2686 deg Eccentricity: 0.0099790 Arg of perigee: 233.2949 deg Mean anomaly: 125.9049 deg Mean motion: 14.53413107 rev/day Decay rate: 4.81e-06 rev/day^2 Epoch rev: 31904 Checksum: 313
Satellite: COMPASS Catalog number: 32787 Epoch time: 13115.68879071 Element set: 605 Inclination: 097.7567 deg RA of node: 175.6081 deg Eccentricity: 0.0016408 Arg of perigee: 116.1069 deg Mean anomaly: 029.9485 deg Mean motion: 14.85253997 rev/day Decay rate: 1.958e-05 rev/day^2 Epoch rev: 27017 Checksum: 345
Satellite: AAUSAT2 Catalog number: 32788 Epoch time: 13115.15795318 Element set: 591 Inclination: 097.7578 deg RA of node: 175.6779 deg Eccentricity: 0.0015888 Arg of perigee: 117.8683 deg Mean anomaly: 299.0370 deg Mean motion: 14.85691762 rev/day Decay rate: 2.113e-05 rev/day^2 Epoch rev: 27013 Checksum: 351
Satellite: DO-64 Catalog number: 32789 Epoch time: 13115.75687392 Element set: 620 Inclination: 097.7723 deg RA of node: 179.7333 deg Eccentricity: 0.0015491 Arg of perigee: 110.1457 deg Mean anomaly: 037.6100 deg Mean motion: 14.88108728 rev/day Decay rate: 3.123e-05 rev/day^2 Epoch rev: 27032 Checksum: 308
Satellite: CO-66 Catalog number: 32791 Epoch time: 13115.13368970 Element set: 588 Inclination: 097.7569 deg RA of node: 174.4974 deg Eccentricity: 0.0016823 Arg of perigee: 118.7597 deg Mean anomaly: 293.6819 deg Mean motion: 14.84438277 rev/day Decay rate: 1.551e-05 rev/day^2 Epoch rev: 27000 Checksum: 356
Satellite: RS-30 Catalog number: 32953 Epoch time: 13115.90469641 Element set: 798 Inclination: 082.4977 deg RA of node: 100.7021 deg Eccentricity: 0.0018677 Arg of perigee: 351.6205 deg Mean anomaly: 008.4567 deg Mean motion: 12.43033274 rev/day Decay rate: 1.0e-07 rev/day^2 Epoch rev: 22341 Checksum: 281
Satellite: METEOR-M Catalog number: 35865 Epoch time: 13115.66026051 Element set: 396 Inclination: 098.6074 deg RA of node: 169.3603 deg Eccentricity: 0.0001739 Arg of perigee: 212.8301 deg Mean anomaly: 147.2763 deg Mean motion: 14.21883589 rev/day Decay rate: -2.7e-07 rev/day^2 Epoch rev: 18700 Checksum: 297
Satellite: RS-38 Catalog number: 35869 Epoch time: 13115.70248068 Element set: 366 Inclination: 098.6012 deg RA of node: 169.3309 deg Eccentricity: 0.0003852 Arg of perigee: 221.8263 deg Mean anomaly: 138.2617 deg Mean motion: 14.22122215 rev/day Decay rate: 3.0e-08 rev/day^2 Epoch rev: 18703 Checksum: 286
Satellite: JUGNU Catalog number: 37839 Epoch time: 13114.75007377 Element set: 373 Inclination: 019.9615 deg RA of node: 270.5679 deg Eccentricity: 0.0019172 Arg of perigee: 054.2282 deg Mean anomaly: 068.6049 deg Mean motion: 14.12143818 rev/day Decay rate: 4.06e-06 rev/day^2 Epoch rev: 7933 Checksum: 306
Satellite: SRMSAT Catalog number: 37841 Epoch time: 13115.79861362 Element set: 375 Inclination: 019.9719 deg RA of node: 275.2340 deg Eccentricity: 0.0012046 Arg of perigee: 021.4810 deg Mean anomaly: 114.0381 deg Mean motion: 14.10216354 rev/day Decay rate: 3.88e-06 rev/day^2 Epoch rev: 7936 Checksum: 277
Satellite: RAX-2 Catalog number: 37853 Epoch time: 13115.55483825 Element set: 485 Inclination: 101.7170 deg RA of node: 304.8176 deg Eccentricity: 0.0237355 Arg of perigee: 178.3165 deg Mean anomaly: 216.6586 deg Mean motion: 14.82989545 rev/day Decay rate: 6.076e-05 rev/day^2 Epoch rev: 8064 Checksum: 333
Satellite: AUBIESAT Catalog number: 37854 Epoch time: 13115.01441250 Element set: 479 Inclination: 101.7196 deg RA of node: 304.7852 deg Eccentricity: 0.0237276 Arg of perigee: 178.6229 deg Mean anomaly: 308.6023 deg Mean motion: 14.83639677 rev/day Decay rate: 8.552e-05 rev/day^2 Epoch rev: 8057 Checksum: 315
Satellite: HRBE Catalog number: 37855 Epoch time: 13115.52936909 Element set: 478 Inclination: 101.7207 deg RA of node: 305.3400 deg Eccentricity: 0.0238365 Arg of perigee: 177.5424 deg Mean anomaly: 218.3041 deg Mean motion: 14.83340622 rev/day Decay rate: 7.724e-05 rev/day^2 Epoch rev: 8064 Checksum: 289
